Gillette, WY

10:42 PM MDT on May 26, 2018 (GMT -0600)
Gillette-Campbell County

Weather History for KGCC - January, 2014

Change the Weather History Date:

Wednesday, January 15, 2014

  Actual Average Record
Temperature  
Mean Temperature 37 °F 26 °F  
Max Temperature 45 °F 38 °F 41 °F (2015)
Min Temperature 29 °F 15 °F -17 °F (2018)
Degree Days  
Heating Degree Days 28 39  
Month to date heating degree days 590 590  
Since 1 July heating degree days 3702 3731  
Cooling Degree Days 0 0  
Month to date cooling degree days 0 0  
Year to date cooling degree days 0 0  
Moisture  
Dew Point 22 °F    
Average Humidity 55    
Maximum Humidity 69    
Minimum Humidity 40    
Precipitation  
Precipitation T in 0.01 in 0.00 in (2018)
Month to date precipitation 0.28 0.15  
Year to date precipitation 0.28 0.15  
Sea Level Pressure  
Sea Level Pressure 30.06 in    
Wind  
Wind Speed 17 mph (West)    
Max Wind Speed 37 mph    
Max Gust Speed 47 mph    
Visibility 9 miles    
Events Snow    
T = Trace of Precipitation, MM = Missing Value Source: NWS Daily Summary

Daily Weather History Graph

Daily Weather History Graph

Search for Another Location

Airport or City:

Astronomy

Jan. 15, 2014 Rise Set
Actual Time 7:34 AM MST 4:48 PM MST
Civil Twilight 7:02 AM MST 5:21 PM MST
Nautical Twilight 6:26 AM MST 5:57 PM MST
Astronomical Twilight 5:51 AM MST 6:31 PM MST
Moon 4:51 PM MST (1/15) 6:50 AM MST (1/15)
Length of Visible Light 10h 18m
Length of Day
9h 14m
Full, 100% of the Moon is Illuminated
Jan 15
Full
Jan 15
Full
Jan 23
Last Quarter
Jan 30
New
Feb 6
First Quarter

Hourly Weather History & Observations

Time (MST) Temp. Windchill Dew Point Humidity Pressure Visibility Wind Dir Wind Speed Gust Speed Precip Events Conditions
12:53 AM 32.0 °F 21.6 °F 21.9 °F 66% 30.21 in 10.0 mi WSW 15.0 mph - N/A   Overcast
1:53 AM 30.0 °F 18.3 °F 19.9 °F 66% 30.18 in 10.0 mi SW 17.3 mph - N/A   Clear
2:53 AM 30.9 °F 19.4 °F 19.9 °F 64% 30.15 in 10.0 mi SW 17.3 mph - N/A   Clear
3:53 AM 30.9 °F 20.2 °F 19.9 °F 64% 30.13 in 10.0 mi SW 15.0 mph - N/A   Clear
4:53 AM 30.9 °F 19.8 °F 21.0 °F 67% 30.09 in 10.0 mi SW 16.1 mph - N/A   Clear
5:53 AM 33.1 °F 23.9 °F 21.9 °F 64% 30.07 in 10.0 mi SSW 12.7 mph - N/A   Clear
6:53 AM 35.1 °F 26.9 °F 21.0 °F 57% 30.06 in 10.0 mi WSW 11.5 mph - N/A   Clear
7:53 AM 32.0 °F 27.5 °F 21.0 °F 64% 30.06 in 10.0 mi WSW 4.6 mph - N/A   Clear
8:53 AM 39.9 °F 32.1 °F 23.0 °F 51% 30.03 in 10.0 mi West 13.8 mph - N/A   Mostly Cloudy
9:53 AM 41.0 °F 33.1 °F 23.0 °F 49% 30.03 in 10.0 mi West 15.0 mph - N/A   Clear
10:53 AM 42.1 °F 34.9 °F 23.0 °F 47% 30.03 in 10.0 mi West 13.8 mph - N/A   Clear
11:53 AM 41.0 °F 33.1 °F 24.1 °F 51% 30.02 in 10.0 mi West 15.0 mph - N/A   Mostly Cloudy
12:53 PM 43.0 °F 34.5 °F 23.0 °F 45% 29.97 in 10.0 mi West 19.6 mph 28.8 mph N/A   Scattered Clouds
1:53 PM 45.0 °F 36.9 °F 23.0 °F 42% 29.95 in 10.0 mi WNW 20.7 mph - N/A   Partly Cloudy
2:53 PM 45.0 °F 39.3 °F 23.0 °F 42% 29.97 in 10.0 mi WNW 11.5 mph - N/A   Partly Cloudy
3:53 PM 44.1 °F 36.2 °F 21.9 °F 42% 29.96 in 10.0 mi WNW 18.4 mph - N/A   Clear
4:53 PM 42.1 °F 33.3 °F 21.9 °F 45% 29.98 in 10.0 mi WNW 19.6 mph - N/A   Clear
5:53 PM 42.1 °F 32.3 °F 21.9 °F 45% 29.99 in 10.0 mi WNW 24.2 mph 31.1 mph N/A   Clear
6:53 PM 39.9 °F 30.8 °F 21.9 °F 49% 30.00 in 10.0 mi WNW 18.4 mph 28.8 mph N/A   Clear
7:53 PM 39.9 °F 29.7 °F 21.9 °F 49% 30.01 in 10.0 mi WNW 23.0 mph 31.1 mph N/A   Clear
8:53 PM 39.0 °F 29.0 °F 21.9 °F 50% 30.02 in 10.0 mi NW 20.7 mph - N/A   Mostly Cloudy
9:53 PM 35.1 °F 23.3 °F 21.9 °F 59% 30.09 in 10.0 mi NNW 23.0 mph 32.2 mph N/A   Scattered Clouds
10:53 PM 33.1 °F 20.1 °F 19.0 °F 56% 30.14 in 10.0 mi NNW 25.3 mph 33.4 mph N/A   Overcast
11:38 PM 28.4 °F 14.7 °F 24.8 °F 86% 30.13 in 2.5 mi NNW 21.9 mph 34.5 mph 0.00 in Snow Light Snow
11:53 PM 28.9 °F 16.1 °F 24.1 °F 82% 30.18 in 2.0 mi NW 19.6 mph 27.6 mph 0.00 in Snow Light Snow